This is the latest recevied weather packets stored in our database for station/object N7CW. If no packets are shown the sender has not sent any weather packets the latest 10 day(s).
| Time | Temp. | Humidity | Pressure | Rain* | Wind** | Luminosity | Snow |
|---|---|---|---|---|---|---|---|
| 1777568919 | 17.22° C | 24% | 1015.8 hPa | 0 mm | - | 684 W/m² | - |
| 1777568615 | 16.67° C | 24% | 1015.9 hPa | 0 mm | - | 673 W/m² | - |
| 1777568313 | 17.22° C | 23% | 1015.9 hPa | 0 mm | - | 661 W/m² | - |
| 1777568008 | 17.22° C | 23% | 1015.7 hPa | 0 mm | - | 646 W/m² | - |
| 1777567706 | 17.22° C | 23% | 1015.8 hPa | 0 mm | - | 634 W/m² | - |
| 1777567402 | 17.22° C | 23% | 1015.7 hPa | 0 mm | - | 622 W/m² | - |
| 1777567101 | 17.22° C | 23% | 1015.5 hPa | 0 mm | - | 607 W/m² | - |
| 1777566798 | 16.11° C | 24% | 1015.9 hPa | 0 mm | - | 594 W/m² | - |
| 1777566496 | 16.67° C | 24% | 1015.5 hPa | 0 mm | - | 581 W/m² | - |
| 1777566193 | 16.67° C | 23% | 1015.5 hPa | 0 mm | - | 566 W/m² | - |
| 1777565889 | 16.67° C | 25% | 1015.7 hPa | 0 mm | - | 552 W/m² | - |
| 1777565585 | 16.11° C | 24% | 1015.8 hPa | 0 mm | - | 537 W/m² | - |
| 1777565282 | 16.11° C | 25% | 1015.7 hPa | 0 mm | - | 523 W/m² | - |
| 1777564977 | 16.67° C | 25% | 1015.7 hPa | 0 mm | - | 508 W/m² | - |
| 1777564673 | 16.67° C | 24% | 1015.9 hPa | 0 mm | - | 492 W/m² | - |
| 1777564368 | 16.67° C | 24% | 1015.9 hPa | 0 mm | - | 476 W/m² | - |
| 1777564065 | 15.56° C | 25% | 1015.7 hPa | 0 mm | - | 462 W/m² | - |
| 1777563761 | 16.67° C | 25% | 1015.9 hPa | 0 mm | - | 445 W/m² | - |
| 1777563458 | 15.56° C | 24% | 1015.8 hPa | 0 mm | - | 428 W/m² | - |
| 1777563151 | 16.11° C | 25% | 1015.8 hPa | 0 mm | - | 412 W/m² | - |
| 1777562847 | 16.67° C | 24% | 1015.8 hPa | 0 mm | - | 396 W/m² | - |
| 1777562545 | 15.56° C | 25% | 1015.9 hPa | 0 mm | - | 380 W/m² | - |
| 1777562243 | 15° C | 25% | 1015.9 hPa | 0 mm | - | 360 W/m² | - |
| 1777561940 | 15° C | 25% | 1015.8 hPa | 0 mm | - | 343 W/m² | - |
| 1777561638 | 15° C | 26% | 1016 hPa | 0 mm | - | 325 W/m² | - |
* Rain latest hour (hover to see other rain measurements)
** Current wind speed in m/s (hover to see current wind gust speed)